Temperature
14 14 13 13 13 13 13 13 13 13 13 12 12 12 12 12 12 12 11 11 11 11 11 11 11 11 11 11 11 11 11 11 11 11 11 10 10 10 10 10 10 10 11
13 13 13 13 13 13 13 13 12 12 12 12 12 12 12 12 11 11 11 11 11 11 11 11 11 11 11 11 11 11 11 11 11 10 10 10 10 10 10 10 10 10 10
13 13 13 13 13 12 12 12 12 12 12 12 12 12 11 11 11 11 11 11 11 11 11 11 11 11 11 11 11 11 10 10 10 10 10 10 10 10 10 10 10 10 10
13 13 13 12 12 12 12 12 12 12 12 12 11 11 11 11 11 11 11 11 11 11 10 10 10 10 10 10 10 10 10 10 10 10 10 10 9 10 9 9 9 10 10
12 12 12 12 12 12 12 12 12 12 12 11 11 11 11 11 11 11 11 10 10 10 10 10 10 10 10 10 10 10 9 9 9 9 9 9 9 9 9 9 9 9 9
12 12 12 12 12 12 12 12 11 11 11 11 11 11 11 11 11 11 10 10 10 10 10 10 10 10 10 10 10 9 9 9 9 9 9 9 9 9 9 9 9 9 8
12 12 12 12 12 11 11 11 11 11 11 11 11 10 10 10 10 10 10 10 10 9 9 9 9 9 9 9 9 9 9 9 9 9 9 9 8 8 8 8 8 8 8
11 11 11 11 11 11 11 11 11 11 10 10 10 10 10 10 10 10 10 9 9 9 9 9 9 9 8 9 9 8 9 8 8 8 8 8 8 8 8 8 8 8 8
11 11 11 11 11 11 11 11 10 10 10 10 10 10 10 10 10 10 9 9 9 8 8 8 8 8 8 8 8 8 8 8 8 8 8 8 8 8 8 8 8 7 7
11 11 11 10 10 10 10 10 10 10 10 10 9 9 9 9 9 9 9 9 8 8 8 8 8 8 8 8 7 7 8 8 8 8 8 8 8 8 8 7 7 7 7
11 10 10 10 10 10 10 10 10 10 9 9 9 9 9 9 9 9 9 8 8 8 7 8 8 8 8 7 7 7 7 7 7 7 7 7 7 7 7 7 7 7 7
10 10 10 10 10 9 9 9 9 9 9 9 8 8 8 8 8 8 8 8 8 7 7 7 7 7 7 7 7 7 7 7 7 7 7 7 7 7 7 7 7 7 6
10 9 9 9 9 9 9 9 9 8 8 8 8 8 8 8 8 8 8 8 7 7 7 7 7 7 7 6 6 6 6 6 6 6 6 6 6 6 6 6 6 6 6
9 9 9 9 9 8 9 9 8 8 8 8 7 7 7 7 7 7 7 7 7 7 7 7 6 6 6 6 6 6 6 6 6 5 5 5 5 5 5 5 5 5 5
9 8 8 8 8 8 8 8 8 8 8 8 7 7 7 7 7 7 7 7 6 6 6 6 6 6 5 5 5 5 5 5 5 5 5 5 5 5 5 5 5 5 5
8 8 8 8 8 8 8 8 8 8 8 7 7 7 7 7 7 7 7 6 6 6 6 5 5 5 5 5 5 5 5 5 4 4 4 4 4 4 4 4 5 5 5
8 8 8 8 7 7 7 7 7 7 7 7 7 7 7 6 6 6 6 6 6 5 5 5 5 5 5 5 4 4 4 4 4 4 4 4 4 4 4 4 4 4 4
8 8 7 7 7 7 7 6 6 6 6 6 6 6 6 6 6 6 6 5 5 5 4 4 4 4 4 4 4 4 4 4 4 4 3 3 3 3 3 3 3 3 3
7 7 7 7 7 6 6 6 6 6 6 6 6 6 6 5 5 5 5 5 4 4 4 4 4 4 4 4 4 4 3 3 3 3 3 3 3 3 3 3 3 3 3
7 7 7 6 6 6 6 6 6 5 5 5 5 5 5 5 4 4 4 4 4 4 4 4 3 3 3 3 3 3 3 3 3 3 3 3 2 2 2 2 2 2 2
7 7 6 6 6 6 6 5 5 5 5 5 5 5 5 5 4 4 4 4 4 3 3 3 3 3 3 3 3 3 3 2 2 2 2 2 2 2 2 2 2 2 2
6 6 6 6 5 5 5 5 5 5 5 4 4 4 4 4 4 3 3 3 3 3 3 3 3 3 3 3 2 2 2 2 2 2 2 2 2 2 2 2 1 2 2
6 6 5 5 5 5 5 4 4 4 4 4 4 4 4 4 3 3 3 3 3 3 3 3 2 2 2 2 2 2 2 2 2 2 1 1 1 1 1 1 1 1 1
5 5 5 5 4 4 4 4 4 4 4 3 3 3 3 3 3 3 3 3 3 3 2 2 2 2 2 2 2 1 1 1 1 1 1 1 1 1 1 1 1 1 1
5 5 5 4 4 4 4 3 3 3 3 3 3 3 3 3 3 2 2 2 2 2 2 2 2 2 2 1 1 1 1 1 1 1 1 1 1 0 0 0 0 0 0
4 4 4 4 4 3 3 3 3 3 3 3 3 3 3 2 2 2 2 2 2 2 2 2 2 1 1 1 1 1 1 1 1 1 0 0 0 0 0 -0 -0 -0 -0
Wind_Speed
5 5 5 4 4 3 3 2 3 2 3 3 3 3 3 3 3 2 3 3 3 3 4 4 4 3 3 3 3 3 3 3 3 3 3 2 2 2 1 2 2 2 2
4 5 5 4 4 3 3 3 3 3 3 3 3 3 3 3 3 3 3 3 4 4 4 4 4 3 3 3 3 3 3 4 4 3 3 3 3 3 2 2 2 2 2
4 4 5 4 4 4 3 3 3 2 3 3 3 3 4 4 4 4 4 4 4 4 4 4 4 4 4 3 3 3 3 3 3 3 3 3 3 3 2 2 3 2 3
4 4 4 5 4 4 4 3 3 3 3 4 4 4 4 4 4 4 4 4 4 4 4 4 5 4 4 4 3 4 3 3 3 3 3 3 3 3 3 3 3 2 3
4 4 4 4 4 4 3 4 3 3 4 4 4 4 4 3 3 3 3 4 4 4 4 4 4 3 2 3 3 3 3 3 3 4 4 4 4 3 3 3 3 3 3
5 5 4 4 4 4 4 4 3 3 4 4 4 4 3 3 1 2 4 4 4 4 4 4 3 3 3 3 3 3 4 5 5 5 5 5 5 5 4 4 4 3 3
5 5 5 4 5 4 4 4 4 4 3 4 4 4 4 3 3 3 4 5 5 5 5 4 3 3 4 5 5 6 6 6 6 7 7 7 6 5 5 6 5 5 5
5 5 4 4 4 4 4 4 4 4 3 4 4 4 4 3 3 4 5 6 5 5 5 5 5 5 4 4 5 5 6 6 6 7 7 7 6 5 6 6 6 5 5
4 5 4 4 4 4 5 5 4 4 4 4 4 4 4 3 4 4 5 4 4 5 5 5 5 6 3 4 6 6 6 6 5 6 6 6 5 6 6 5 5 5 5
4 4 4 4 5 5 5 4 4 4 4 4 4 4 5 4 4 4 5 4 4 4 5 5 5 5 4 4 6 7 7 6 5 5 6 6 6 6 7 7 6 6 5
3 3 4 4 5 5 5 4 4 4 4 4 4 4 5 5 5 6 6 4 4 4 4 5 4 5 5 6 7 7 6 6 6 6 5 5 4 4 4 5 5 6 6
3 3 4 4 4 4 4 5 5 5 5 5 5 4 4 4 4 5 6 6 6 5 5 4 3 4 5 6 6 4 4 6 5 5 4 4 4 4 4 5 6 6 7
3 3 3 3 3 4 4 5 5 5 4 4 4 4 3 3 4 5 7 7 7 6 5 3 4 4 5 5 5 6 6 5 5 5 5 5 4 4 4 4 5 5 5
4 4 3 3 3 4 3 4 4 5 5 5 5 4 4 4 4 4 4 4 5 5 4 3 5 6 6 5 5 6 6 5 5 5 5 4 4 4 4 4 4 4 4
4 4 4 3 3 3 3 3 4 4 4 5 5 5 5 5 4 4 4 4 4 4 4 4 4 4 5 5 4 4 4 4 5 5 5 4 4 4 4 4 4 5 5
4 4 3 3 3 3 3 3 2 4 3 4 5 5 4 4 4 5 5 4 4 4 5 5 5 5 5 5 5 5 4 4 4 4 4 5 4 4 4 4 4 5 5
4 4 3 3 3 3 3 4 3 2 3 4 5 5 4 3 4 4 3 3 4 5 5 5 5 5 5 5 5 5 5 4 4 4 5 5 5 5 5 5 5 5 6
4 4 4 4 4 4 4 4 4 4 3 3 4 4 3 2 3 3 3 3 3 5 5 5 4 4 4 4 4 4 4 4 4 4 5 4 5 5 5 5 5 6 5
4 3 3 3 3 4 4 4 4 4 4 3 2 2 3 3 3 3 4 4 4 5 5 5 4 4 4 4 4 4 4 4 5 4 4 5 5 5 5 5 5 6 6
3 3 3 3 3 3 3 4 4 4 4 3 3 3 2 2 2 3 4 4 4 5 5 5 4 4 4 4 4 4 4 4 5 4 4 5 4 5 5 6 5 5 6
3 3 3 4 4 4 3 4 4 4 4 4 4 3 3 4 4 4 4 4 5 5 5 5 5 5 5 4 4 5 5 5 4 4 4 5 5 5 5 5 5 5 5
3 3 3 4 4 4 4 4 4 4 4 4 4 3 4 4 4 4 4 4 4 5 5 5 5 4 4 5 5 5 5 5 5 5 5 5 5 5 5 5 5 5 5
3 3 3 3 4 3 4 4 4 4 4 4 4 3 4 4 4 4 4 4 4 4 4 4 5 5 5 5 5 5 5 5 5 5 5 5 5 5 5 5 6 6 6
3 4 4 3 3 4 4 4 4 4 4 4 4 4 4 4 4 5 4 4 4 4 4 5 6 7 7 6 6 6 6 6 6 6 7 6 6 5 5 6 6 7 7
3 4 4 4 4 4 4 4 4 4 4 4 5 4 4 4 4 4 4 4 5 5 5 6 6 6 8 9 8 7 6 7 7 6 7 6 7 6 6 7 6 7 7
3 3 4 4 4 4 4 4 4 5 5 5 5 5 5 4 4 4 4 4 4 4 5 5 6 7 8 8 9 8 7 8 8 8 7 6 6 6 6 6 7 7 7
Wind_Direction
195 195 194 194 195 193 196 207 204 197 200 206 206 213 214 214 211 209 221 220 225 226 225 229 235 239 239 234 236 243 248 247 247 270 283 289 280 281 279 268 270 255 223
194 194 194 189 189 193 199 205 203 201 207 213 212 217 221 220 216 217 226 231 234 233 231 231 235 231 238 241 232 236 240 240 239 253 273 283 283 287 286 277 268 262 262
191 195 192 190 193 201 206 205 205 205 211 214 216 220 224 224 221 225 230 235 239 242 240 238 237 233 233 229 228 232 237 236 239 247 263 280 275 272 276 272 266 260 257
187 195 200 199 201 208 210 208 210 211 216 220 220 223 226 227 226 228 230 234 238 242 242 241 240 235 234 229 228 228 230 234 238 248 256 262 267 269 263 260 263 264 260
193 199 205 206 205 208 209 214 217 221 223 223 222 221 224 226 224 229 233 238 243 243 245 246 245 238 261 251 241 232 230 236 240 246 253 255 257 255 256 252 264 270 265
201 208 209 208 204 209 213 212 215 224 232 227 224 219 218 225 195 246 253 241 244 244 246 245 235 217 216 228 244 251 247 241 245 250 255 257 260 262 262 255 256 258 266
206 209 208 209 209 209 211 210 214 220 226 225 225 222 220 209 182 221 248 248 246 248 247 247 249 236 224 233 224 223 232 239 247 253 255 259 264 263 260 257 254 255 262
208 209 208 211 214 214 212 214 219 222 221 223 224 221 223 212 196 221 241 243 245 246 245 246 245 244 235 245 246 245 248 244 242 248 257 264 267 266 262 262 261 260 263
211 213 213 215 216 217 217 216 220 221 222 222 222 222 224 215 193 213 242 242 247 248 244 243 242 243 227 238 244 248 252 251 232 234 257 269 275 259 255 254 249 241 251
217 222 222 220 220 223 225 223 220 217 220 222 222 227 228 228 195 210 241 239 246 249 248 242 226 233 230 235 245 249 252 254 254 245 247 246 247 235 229 237 240 242 251
218 223 226 224 225 228 227 222 216 214 216 220 223 227 232 232 201 204 231 239 243 249 250 248 238 204 223 241 256 254 260 266 259 252 250 250 251 249 248 246 244 243 245
210 216 224 227 227 225 222 221 217 214 219 222 225 228 237 230 218 211 223 245 259 250 251 252 244 203 225 243 253 261 268 265 253 246 245 246 249 251 251 253 254 252 254
210 216 226 233 231 227 221 220 221 220 222 224 226 231 236 235 219 211 223 236 251 253 252 254 251 234 236 238 234 240 243 245 246 248 248 252 256 256 255 255 261 263 261
218 224 229 235 237 234 231 230 228 222 221 224 226 231 237 235 229 222 227 233 235 247 250 231 227 230 234 238 239 237 241 241 243 249 254 258 260 255 250 250 256 255 254
225 231 233 236 244 245 240 246 245 242 239 233 229 229 230 236 234 233 237 237 236 240 246 241 238 237 242 243 243 243 241 240 239 242 247 253 252 252 255 254 254 255 254
227 231 234 234 237 241 244 249 274 264 248 249 256 252 245 249 227 231 241 241 234 225 232 234 238 238 239 239 239 241 240 241 244 245 251 252 250 251 254 256 252 252 257
235 235 238 237 237 241 244 249 254 257 236 235 237 243 252 243 222 220 226 230 221 215 234 238 240 242 242 240 240 242 245 246 243 243 247 251 253 253 253 254 254 256 258
239 242 244 242 241 244 247 250 251 253 251 242 228 213 212 223 228 220 200 203 227 225 239 245 246 246 245 246 246 246 246 245 243 243 247 250 252 253 254 254 253 257 263
240 241 245 251 247 246 244 248 251 252 254 245 235 211 197 205 214 214 206 225 230 233 239 244 247 247 247 245 245 246 244 242 243 243 244 246 249 252 254 258 258 256 261
246 245 248 249 249 245 242 246 251 254 257 249 237 234 210 216 232 226 230 238 238 239 239 241 242 244 245 244 241 242 243 243 243 244 245 246 248 250 254 258 260 257 257
255 244 233 246 247 243 240 241 247 251 253 255 247 228 207 224 231 232 235 239 238 240 241 240 239 238 240 241 240 241 244 246 244 244 245 246 247 249 251 254 260 260 260
250 247 243 246 247 244 244 245 243 245 249 255 252 230 206 230 237 236 237 241 243 241 238 237 238 238 237 236 236 237 239 241 241 241 245 247 248 250 251 252 256 261 259
248 243 246 248 249 245 243 246 246 246 248 253 250 239 228 237 242 243 245 245 245 244 237 231 234 235 232 233 232 233 235 238 240 239 241 245 247 249 252 254 255 257 257
249 247 246 247 248 247 247 249 248 248 250 253 254 245 240 242 247 250 250 247 243 243 241 235 234 235 236 236 235 235 237 239 241 238 238 241 243 247 250 253 255 255 256
250 250 248 245 242 242 246 250 252 249 250 250 251 248 244 243 245 248 248 246 241 239 240 241 238 236 236 236 237 238 238 237 243 246 238 236 239 242 246 249 253 257 255
255 256 257 252 246 244 242 243 249 251 250 250 249 247 244 240 240 244 246 246 247 247 245 244 243 241 239 237 238 239 235 233 237 242 240 236 238 243 245 247 251 250 253
Height
1519 1520 1521 1522 1523 1524 1525 1526 1527 1527 1528 1528 1529 1529 1530 1530 1530 1531 1531 1531 1532 1532 1533 1533 1533 1533 1533 1533 1533 1534 1534 1534 1533 1533 1533 1533 1532 1532 1531 1530 1530 1529 1529
1516 1518 1519 1520 1521 1522 1523 1524 1524 1525 1526 1526 1527 1527 1527 1528 1528 1528 1528 1529 1529 1530 1530 1530 1530 1531 1531 1531 1531 1531 1531 1531 1531 1531 1531 1531 1530 1529 1528 1528 1528 1527 1527
1514 1515 1517 1517 1518 1520 1521 1521 1522 1523 1523 1524 1524 1525 1525 1525 1525 1526 1526 1526 1527 1527 1527 1527 1528 1528 1528 1528 1528 1528 1529 1529 1529 1528 1528 1528 1527 1527 1526 1525 1525 1524 1524
1512 1513 1514 1515 1516 1517 1518 1519 1520 1520 1521 1521 1522 1522 1522 1523 1523 1523 1523 1524 1524 1524 1524 1524 1525 1525 1525 1525 1525 1525 1526 1526 1526 1526 1525 1525 1524 1523 1523 1523 1522 1522 1521
1510 1511 1511 1512 1513 1514 1515 1516 1517 1517 1518 1518 1519 1519 1519 1519 1520 1520 1520 1521 1521 1521 1521 1521 1521 1521 1521 1521 1522 1522 1522 1523 1523 1522 1522 1522 1521 1521 1520 1520 1519 1518 1518
1507 1508 1509 1510 1510 1511 1512 1513 1513 1514 1515 1515 1516 1516 1516 1516 1516 1516 1517 1517 1517 1518 1518 1518 1517 1517 1517 1517 1518 1518 1519 1519 1519 1519 1519 1519 1518 1518 1517 1516 1516 1515 1515
1504 1505 1506 1506 1507 1508 1509 1509 1510 1510 1511 1512 1512 1512 1512 1513 1513 1513 1513 1514 1514 1514 1514 1514 1514 1514 1514 1514 1515 1515 1515 1515 1515 1516 1515 1515 1515 1514 1514 1513 1512 1512 1511
1501 1502 1502 1503 1504 1504 1505 1506 1506 1507 1507 1508 1508 1508 1509 1509 1509 1509 1509 1510 1510 1510 1510 1510 1510 1510 1510 1510 1511 1511 1511 1511 1511 1511 1511 1511 1511 1510 1510 1509 1509 1508 1508
1498 1498 1499 1500 1500 1501 1501 1502 1502 1503 1503 1503 1504 1504 1504 1505 1505 1505 1505 1505 1506 1506 1506 1505 1506 1506 1506 1506 1507 1507 1507 1507 1506 1506 1506 1506 1505 1505 1505 1505 1505 1505 1504
1495 1495 1496 1496 1496 1497 1497 1498 1498 1499 1499 1499 1500 1500 1500 1501 1501 1501 1501 1502 1502 1501 1501 1501 1501 1501 1501 1501 1502 1502 1502 1502 1502 1502 1502 1502 1502 1501 1501 1501 1501 1501 1500
1492 1492 1492 1493 1493 1493 1493 1494 1494 1495 1495 1496 1496 1496 1496 1497 1497 1497 1497 1497 1497 1497 1497 1497 1497 1496 1497 1497 1497 1498 1498 1498 1498 1497 1497 1497 1497 1496 1496 1496 1496 1496 1496
1489 1489 1489 1489 1489 1489 1489 1490 1490 1491 1491 1491 1492 1492 1492 1493 1493 1493 1493 1493 1493 1493 1493 1492 1492 1492 1492 1492 1492 1492 1493 1493 1493 1493 1493 1492 1492 1492 1491 1491 1491 1491 1490
1486 1486 1486 1486 1486 1486 1486 1486 1486 1486 1487 1487 1488 1488 1488 1488 1488 1489 1489 1489 1489 1489 1488 1488 1488 1488 1488 1488 1487 1488 1488 1488 1488 1488 1488 1488 1487 1487 1487 1486 1486 1486 1485
1483 1483 1482 1482 1482 1482 1482 1482 1482 1482 1483 1483 1483 1483 1484 1484 1484 1484 1484 1484 1484 1484 1484 1483 1483 1483 1483 1483 1483 1483 1483 1483 1484 1484 1483 1483 1483 1483 1482 1482 1482 1481 1481
1479 1479 1479 1479 1479 1478 1478 1478 1478 1478 1478 1479 1479 1479 1479 1479 1479 1480 1479 1479 1479 1479 1479 1479 1479 1479 1479 1479 1479 1479 1479 1479 1479 1479 1479 1479 1478 1478 1478 1478 1477 1477 1477
1476 1476 1476 1476 1475 1475 1474 1474 1474 1474 1474 1474 1474 1475 1475 1475 1475 1474 1474 1474 1474 1474 1474 1474 1474 1474 1474 1474 1474 1474 1474 1475 1475 1475 1475 1475 1474 1474 1474 1474 1473 1473 1473
1473 1473 1473 1472 1472 1471 1471 1470 1469 1469 1469 1469 1469 1470 1470 1470 1470 1469 1469 1470 1470 1470 1470 1470 1470 1470 1470 1470 1470 1470 1470 1470 1470 1470 1470 1470 1470 1470 1470 1469 1469 1469 1468
1470 1469 1469 1469 1468 1468 1467 1467 1466 1466 1465 1465 1465 1465 1465 1465 1465 1465 1465 1465 1464 1465 1465 1465 1465 1465 1465 1465 1465 1465 1465 1465 1465 1465 1466 1466 1466 1466 1465 1465 1465 1464 1464
1466 1466 1466 1465 1464 1464 1463 1463 1463 1462 1462 1461 1461 1460 1461 1460 1460 1460 1460 1460 1460 1460 1460 1461 1461 1461 1461 1461 1460 1460 1460 1460 1461 1461 1461 1461 1461 1461 1461 1460 1460 1460 1459
1463 1462 1462 1462 1461 1460 1460 1459 1459 1458 1458 1457 1457 1456 1456 1456 1456 1456 1456 1456 1456 1456 1456 1456 1456 1456 1456 1456 1456 1456 1456 1456 1456 1456 1456 1457 1456 1456 1456 1456 1456 1455 1455
1459 1459 1458 1458 1457 1456 1456 1455 1455 1454 1454 1453 1453 1452 1452 1452 1452 1452 1452 1451 1451 1451 1451 1451 1451 1451 1451 1451 1451 1451 1451 1451 1451 1451 1452 1452 1452 1452 1452 1452 1451 1451 1450
1456 1455 1454 1454 1453 1452 1452 1451 1451 1450 1450 1449 1449 1448 1448 1448 1448 1447 1447 1447 1447 1447 1447 1447 1446 1446 1446 1446 1446 1446 1446 1446 1446 1446 1446 1447 1447 1447 1447 1447 1446 1446 1446
1452 1451 1450 1450 1449 1449 1448 1447 1446 1446 1446 1445 1445 1444 1444 1444 1443 1443 1443 1442 1442 1442 1442 1441 1441 1441 1441 1441 1441 1441 1441 1441 1441 1441 1441 1442 1442 1442 1442 1442 1441 1441 1441
1448 1447 1446 1446 1445 1445 1444 1443 1442 1442 1442 1441 1441 1440 1440 1439 1439 1439 1438 1438 1437 1437 1436 1436 1436 1435 1435 1435 1435 1435 1435 1436 1436 1436 1436 1437 1437 1437 1437 1437 1436 1437 1437
1443 1443 1442 1441 1441 1440 1439 1439 1438 1438 1437 1437 1436 1436 1435 1435 1435 1434 1434 1433 1432 1432 1431 1431 1430 1430 1429 1429 1430 1430 1430 1430 1430 1431 1431 1431 1432 1432 1432 1432 1432 1432 1432
1439 1438 1437 1437 1436 1436 1435 1434 1434 1434 1433 1433 1432 1432 1431 1431 1430 1430 1429 1428 1427 1427 1426 1426 1425 1424 1424 1424 1424 1424 1424 1425 1425 1425 1426 1426 1426 1426 1426 1427 1427 1427 1427